Location: Newark
(51.5033°N, 0.1199°W)
Time: 19:58:08
(UTC+00:00)

DELFI C3 - Visible Passes

Search period start: 15 October 2019 00:00
Search period end: 25 October 2019 00:00
Orbit: 535 x 554 km, 97.5° (Epoch: 15 October)

Date Brightness Start Highest point End Pass type
(mag) Time Alt. Az. Time Alt. Az. Time Alt. Az.
15 Oct ? 19:27:51 22° NNE 19:27:51 22° NNE 19:29:31 10° N visible
15 Oct ? 21:03:27 12° NW 21:03:27 12° NW 21:03:56 10° NW visible
16 Oct ? 19:22:02 20° NNE 19:22:02 20° NNE 19:23:33 10° N visible
16 Oct ? 20:57:38 13° NW 20:57:38 13° NW 20:58:09 10° NW visible
17 Oct ? 19:16:14 18° NNE 19:16:14 18° NNE 19:17:34 10° N visible
17 Oct ? 20:51:50 13° NW 20:51:50 13° NW 20:52:20 10° NNW visible
18 Oct ? 19:10:24 16° NNE 19:10:24 16° NNE 19:11:34 10° N visible
18 Oct ? 20:46:01 13° NNW 20:46:01 13° NNW 20:46:31 10° NNW visible
19 Oct ? 19:04:36 15° NNE 19:04:36 15° NNE 19:05:32 10° NNE visible
19 Oct ? 20:40:12 13° NNW 20:40:12 13° NNW 20:40:40 10° NNW visible
20 Oct ? 18:58:46 13° NNE 18:58:46 13° NNE 18:59:30 10° NNE visible
20 Oct ? 20:34:23 13° NNW 20:34:23 13° NNW 20:34:49 10° NNW visible
21 Oct ? 18:52:56 12° NNE 18:52:56 12° NNE 18:53:27 10° NNE visible
21 Oct ? 20:28:33 12° NNW 20:28:33 12° NNW 20:28:56 10° NNW visible
22 Oct ? 18:47:06 11° NNE 18:47:06 11° NNE 18:47:21 10° NNE visible
22 Oct ? 20:22:43 12° NNW 20:22:43 12° NNW 20:23:03 10° NNW visible
23 Oct ? 20:16:53 12° NNW 20:16:53 12° NNW 20:17:09 10° NNW visible
24 Oct ? 20:11:02 11° NNW 20:11:02 11° NNW 20:11:15 10° NNW visible
